Weather History for KBIS - July, 2014

Change the Weather History Date:

Sunday, July 13, 2014

  Actual Average Record
Temperature  
Mean Temperature 67 °F 71 °F  
Max Temperature 76 °F 85 °F 100 °F (2003)
Min Temperature 57 °F 57 °F 39 °F (1967)
Degree Days  
Heating Degree Days 0 1  
Month to date heating degree days 12 13  
Since 1 June heating degree days 106 106  
Since 1 July heating degree days 12 13  
Cooling Degree Days 2 7  
Month to date cooling degree days 61 74  
Year to date cooling degree days 165 174  
Since 1 June cooling degree days 114 157  
Growing Degree Days 16 (Base 50)    
Moisture  
Dew Point 46 °F    
Average Humidity 57    
Maximum Humidity 86    
Minimum Humidity 27    
Precipitation  
Precipitation 0.00 in 0.10 in 1.46 in (1949)
Month to date precipitation 0.42 1.30  
Year to date precipitation 7.63 9.94  
Snow  
Snow 0.00 in 0.00 in 0.00 in (2002)
Month to date snowfall 0.0 0.0  
Since 1 June snowfall 0.0 0.0  
Since 1 July snowfall 0.0 0.0  
Snow Depth 0.00 in    
Sea Level Pressure  
Sea Level Pressure 30.06 in    
Wind  
Wind Speed 12 mph (NW)    
Max Wind Speed 28 mph    
Max Gust Speed 35 mph    
Visibility 10 miles    
Events      
T = Trace of Precipitation, MM = Missing Value Source: NWS Daily Summary

Daily Weather History Graph

Daily Weather History Graph

Search for Another Location

Airport or City:

Trip Planner

Search our weather history database for the weather conditions in past years. The results will help you decide how hot, cold, wet, or windy it might be!

Date:

Astronomy

Jul. 13, 2014 Rise Set
Actual Time 6:02 AM CDT 9:34 PM CDT
Civil Twilight 5:24 AM CDT 10:12 PM CDT
Nautical Twilight 4:33 AM CDT 11:03 PM CDT
Astronomical Twilight 3:25 AM CDT 12:10 AM CDT
Moon 10:12 PM CDT (7/13) 7:43 AM CDT (7/13)
Length of Visible Light 16h 48m
Length of Day
15h 32m
Full, 98% of the Moon is Illuminated
Jul 13
Full
Jul 18
Last Quarter
Jul 26
New
Aug 3
First Quarter
Aug 10
Full

Hourly Weather History & Observations

Time (CDT) Temp. Dew Point Humidity Pressure Visibility Wind Dir Wind Speed Gust Speed Precip Events Conditions
12:52 AM 63.0 °F 55.0 °F 75% 30.06 in 10.0 mi West 6.9 mph - N/A   Clear
1:52 AM 61.0 °F 55.0 °F 81% 30.06 in 10.0 mi WNW 5.8 mph - N/A   Partly Cloudy
2:52 AM 60.1 °F 55.0 °F 83% 30.05 in 10.0 mi West 6.9 mph - N/A   Clear
3:52 AM 60.1 °F 54.0 °F 80% 30.05 in 10.0 mi WNW 5.8 mph - N/A   Clear
4:52 AM 57.9 °F 54.0 °F 87% 30.05 in 10.0 mi WNW 5.8 mph - N/A   Clear
5:52 AM 57.0 °F 52.0 °F 83% 30.06 in 10.0 mi WNW 5.8 mph - N/A   Clear
6:52 AM 57.9 °F 50.0 °F 75% 30.08 in 9.0 mi WNW 8.1 mph - N/A   Clear
7:52 AM 61.0 °F 48.9 °F 64% 30.09 in 9.0 mi NW 6.9 mph - N/A   Clear
8:52 AM 64.0 °F 48.0 °F 56% 30.10 in 9.0 mi NW 6.9 mph - N/A   Clear
9:52 AM 66.9 °F 46.9 °F 49% 30.10 in 10.0 mi NW 9.2 mph - N/A   Clear
10:52 AM 69.1 °F 41.0 °F 36% 30.10 in 10.0 mi NNW 16.1 mph 24.2 mph N/A   Clear
11:52 AM 71.1 °F 41.0 °F 34% 30.09 in 10.0 mi NNW 15.0 mph 23.0 mph N/A   Clear
12:52 PM 73.0 °F 42.1 °F 33% 30.08 in 10.0 mi NW 16.1 mph 20.7 mph N/A   Clear
1:52 PM 75.0 °F 42.1 °F 31% 30.06 in 10.0 mi NW 12.7 mph 24.2 mph N/A   Clear
2:52 PM 75.0 °F 39.9 °F 28% 30.05 in 10.0 mi NNW 20.7 mph 28.8 mph N/A   Clear
3:52 PM 75.9 °F 41.0 °F 29% 30.05 in 10.0 mi NW 18.4 mph 29.9 mph N/A   Clear
4:52 PM 75.0 °F 42.1 °F 31% 30.04 in 10.0 mi NNW 18.4 mph 28.8 mph N/A   Clear
5:52 PM 75.0 °F 41.0 °F 29% 30.04 in 10.0 mi NW 17.3 mph 32.2 mph N/A   Clear
6:52 PM 73.9 °F 41.0 °F 30% 30.03 in 10.0 mi NW 21.9 mph 27.6 mph N/A   Clear
7:50 PM 71.6 °F 41.0 °F 33% 30.04 in 10.0 mi NNW 17.3 mph 23.0 mph N/A   Partly Cloudy
7:52 PM 72.0 °F 41.0 °F 33% 30.04 in 10.0 mi NNW 16.1 mph 23.0 mph N/A   Partly Cloudy
8:52 PM 69.1 °F 41.0 °F 36% 30.05 in 10.0 mi NNW 16.1 mph 25.3 mph N/A   Clear
9:52 PM 66.0 °F 44.1 °F 45% 30.06 in 10.0 mi North 12.7 mph 19.6 mph N/A   Clear
10:52 PM 63.0 °F 45.0 °F 52% 30.08 in 10.0 mi North 10.4 mph - N/A   Clear
11:52 PM 61.0 °F 46.9 °F 60% 30.10 in 10.0 mi North 6.9 mph - N/A   Clear